USA 170

Last updated on Wed Sep 17 2025 00:02:46 GMT+0000 (Coordinated Universal Time)

1 27875U 03040A 25259.08889154 .00000112 00000+0 00000+0 0 9994 2 27875 9.9154 50.4718 0001147 135.5878 225.3733 1.00269197 30243
UTC large
Height (km)
Speed (km/s)
/
Latitude / Longitude
Inclination (degrees)
Orbital Period (minutes)
Azimuth
Elevation
Range (km)
Doppler Factor

Next 0 passes for location: London (51.5072 / 0.1276)

Sorry there are no passes over London.